Location: Complexul Astronomic Baia Mare
(47.6577°N, 23.5639°E)
Time: 07:43:22
(UTC+03:00)

ISS - Pass Details

Date: 02 June 2017
Orbit: 401 x 408 km, 51.6° (Epoch: 22 October)

Event Time Altitude Azimuth Distance (km) Brightness Sun altitude
Rises 01:15:55 0° 291° (WNW) 2,361 0.4 -20.1°
Reaches altitude 10° 01:18:08 10° 282° (WNW) 1,492 -0.8 -20.2°
Enters shadow 01:19:20 19° 270° (W) 1,067 -1.7 -20.2°
